When you browse on this site, cookies collect data to enhance your experience and personalize the content and advertising you see.
Visit our Privacy Policy to learn more. By continuing to use the site, you agree to this use of cookies and data.
  • In Hungary
  • List of Countries
  • For 7 days
  • Water Temperature
  • Satellite Maps
  • Weather Map
  • News
  • Weather Widgets
  • user-avatar
    Login

    Hourly Weather Natitingou

    Today, 19 January, Saturday

    Time Temperature Precipitation Wind Pressure Humidity
    00:00 +29°C° 0 mm 1 mps 718 mmHg 33%
    01:00 +29°C° 0 mm 1 mps 717 mmHg 35%
    02:00 +28°C° 0 mm 1 mps 717 mmHg 36%
    03:00 +28°C° 0 mm 1 mps 717 mmHg 38%
    04:00 +27°C° 0 mm 1 mps 717 mmHg 42%
    05:00 +27°C° 0 mm 1 mps 717 mmHg 45%
    06:00 +26°C° 0 mm 1 mps 717 mmHg 48%
    07:00 +28°C° 0 mm 2 mps 718 mmHg 47%
    08:00 +30°C° 0 mm 2 mps 718 mmHg 47%
    09:00 +33°C° 0 mm 3 mps 719 mmHg 46%
    10:00 +35°C° 0 mm 3 mps 719 mmHg 39%
    11:00 +37°C° 0 mm 2 mps 719 mmHg 32%
    12:00 +39°C° 0 mm 2 mps 718 mmHg 25%
    13:00 +39°C° 0 mm 2 mps 718 mmHg 23%
    14:00 +40°C° 0 mm 1 mps 717 mmHg 21%
    15:00 +41°C° 0 mm 1 mps 717 mmHg 19%
    16:00 +39°C° 0 mm 1 mps 717 mmHg 21%
    17:00 +37°C° 0 mm 1 mps 717 mmHg 23%
    18:00 +35°C° 0 mm 1 mps 717 mmHg 24%
    19:00 +35°C° 0 mm 1 mps 717 mmHg 27%
    20:00 +34°C° 0 mm 1 mps 718 mmHg 29%
    21:00 +35°C° 0 mm 2 mps 718 mmHg 31%
    22:00 +34°C° 0 mm 2 mps 718 mmHg 32%
    23:00 +34°C° 0 mm 2 mps 718 mmHg 32%

    Tomorrow, 20 January, Sunday

    Time Temperature Precipitation Wind Pressure Humidity
    00:00 +32°C° 0 mm 2 mps 718 mmHg 32%
    01:00 +31°C° 0 mm 2 mps 718 mmHg 26%
    02:00 +30°C° 0 mm 2 mps 718 mmHg 19%
    03:00 +28°C° 0 mm 2 mps 717 mmHg 13%
    04:00 +28°C° 0 mm 2 mps 718 mmHg 12%
    05:00 +28°C° 0 mm 2 mps 718 mmHg 11%
    06:00 +28°C° 0 mm 3 mps 718 mmHg 10%
    07:00 +29°C° 0 mm 3 mps 719 mmHg 9%
    08:00 +29°C° 0 mm 2 mps 720 mmHg 9%
    09:00 +29°C° 0 mm 2 mps 720 mmHg 8%
    10:00 +32°C° 0 mm 2 mps 720 mmHg 8%
    11:00 +35°C° 0 mm 2 mps 720 mmHg 8%
    12:00 +38°C° 0 mm 2 mps 719 mmHg 8%
    13:00 +37°C° 0 mm 1 mps 719 mmHg 9%
    14:00 +39°C° 0 mm 1 mps 718 mmHg 10%
    15:00 +39°C° 0 mm 1 mps 717 mmHg 12%
    16:00 +37°C° 0 mm 1 mps 717 mmHg 13%
    17:00 +35°C° 0 mm 1 mps 717 mmHg 15%
    18:00 +33°C° 0 mm 1 mps 717 mmHg 17%
    19:00 +32°C° 0 mm 1 mps 718 mmHg 17%
    20:00 +31°C° 0 mm 1 mps 718 mmHg 18%
    21:00 +30°C° 0 mm 1 mps 719 mmHg 18%
    22:00 +29°C° 0 mm 2 mps 718 mmHg 18%
    23:00 +28°C° 0 mm 2 mps 718 mmHg 17%

    Day after tomorrow, 21 January, Monday

    Time Temperature Precipitation Wind Pressure Humidity
    00:00 +28°C° 0 mm 2 mps 718 mmHg 16%
    01:00 +27°C° 0 mm 2 mps 718 mmHg 14%
    02:00 +27°C° 0 mm 2 mps 717 mmHg 13%
    03:00 +26°C° 0 mm 2 mps 717 mmHg 11%
    04:00 +25°C° 0 mm 2 mps 717 mmHg 12%
    05:00 +25°C° 0 mm 2 mps 717 mmHg 12%
    06:00 +24°C° 0 mm 2 mps 718 mmHg 12%
    07:00 +26°C° 0 mm 2 mps 718 mmHg 11%
    08:00 +29°C° 0 mm 2 mps 719 mmHg 10%
    09:00 +31°C° 0 mm 2 mps 720 mmHg 9%
    10:00 +34°C° 0 mm 2 mps 720 mmHg 8%
    11:00 +36°C° 0 mm 2 mps 719 mmHg 8%
    12:00 +39°C° 0 mm 2 mps 719 mmHg 7%
    13:00 +39°C° 0 mm 1 mps 718 mmHg 8%
    14:00 +40°C° 0 mm 1 mps 717 mmHg 8%
    15:00 +40°C° 0 mm 1 mps 717 mmHg 8%
    16:00 +37°C° 0 mm 1 mps 717 mmHg 10%
    17:00 +35°C° 0 mm 1 mps 717 mmHg 11%
    18:00 +33°C° 0 mm 1 mps 717 mmHg 12%
    19:00 +32°C° 0 mm 1 mps 717 mmHg 13%
    20:00 +31°C° 0 mm 1 mps 718 mmHg 13%
    21:00 +29°C° 0 mm 1 mps 718 mmHg 14%
    22:00 +29°C° 0 mm 2 mps 718 mmHg 14%
    23:00 +28°C° 0 mm 2 mps 718 mmHg 14%

    22 January, Tuesday

    Time Temperature Precipitation Wind Pressure Humidity
    00:00 +28°C° 0 mm 2 mps 717 mmHg 15%
    01:00 +27°C° 0 mm 2 mps 717 mmHg 14%
    02:00 +27°C° 0 mm 2 mps 717 mmHg 14%
    03:00 +26°C° 0 mm 2 mps 716 mmHg 13%
    04:00 +26°C° 0 mm 2 mps 716 mmHg 12%
    05:00 +25°C° 0 mm 2 mps 717 mmHg 11%
    06:00 +25°C° 0 mm 2 mps 717 mmHg 10%
    07:00 +27°C° 0 mm 2 mps 718 mmHg 9%
    08:00 +30°C° 0 mm 2 mps 719 mmHg 8%
    09:00 +33°C° 0 mm 3 mps 720 mmHg 7%
    10:00 +35°C° 0 mm 2 mps 719 mmHg 6%
    11:00 +37°C° 0 mm 2 mps 719 mmHg 6%
    12:00 +39°C° 0 mm 2 mps 719 mmHg 6%
    13:00 +39°C° 0 mm 2 mps 718 mmHg 6%
    14:00 +40°C° 0 mm 1 mps 717 mmHg 6%
    15:00 +40°C° 0 mm 1 mps 716 mmHg 6%
    16:00 +37°C° 0 mm 1 mps 716 mmHg 7%
    17:00 +35°C° 0 mm 1 mps 716 mmHg 8%
    18:00 +33°C° 0 mm 1 mps 716 mmHg 9%
    19:00 +32°C° 0 mm 1 mps 716 mmHg 10%
    20:00 +30°C° 0 mm 1 mps 717 mmHg 11%
    21:00 +29°C° 0 mm 1 mps 717 mmHg 11%
    22:00 +29°C° 0 mm 1 mps 717 mmHg 11%
    23:00 +28°C° 0 mm 2 mps 717 mmHg 12%

    23 January, Wednesday

    Time Temperature Precipitation Wind Pressure Humidity
    00:00 +27°C° 0 mm 2 mps 717 mmHg 12%
    01:00 +27°C° 0 mm 2 mps 716 mmHg 12%
    02:00 +26°C° 0 mm 2 mps 716 mmHg 11%
    03:00 +25°C° 0 mm 2 mps 716 mmHg 11%
    04:00 +25°C° 0 mm 2 mps 716 mmHg 11%
    05:00 +24°C° 0 mm 2 mps 716 mmHg 10%
    06:00 +24°C° 0 mm 2 mps 717 mmHg 10%
    07:00 +26°C° 0 mm 2 mps 718 mmHg 9%
    08:00 +28°C° 0 mm 3 mps 718 mmHg 7%
    09:00 +30°C° 0 mm 3 mps 719 mmHg 6%
    10:00 +34°C° 0 mm 2 mps 719 mmHg 6%
    11:00 +36°C° 0 mm 2 mps 718 mmHg 5%
    12:00 +37°C° 0 mm 1 mps 718 mmHg 5%
    13:00 +39°C° 0 mm 1 mps 717 mmHg 5%
    14:00 +40°C° 0 mm 1 mps 717 mmHg 5%
    15:00 +38°C° 0 mm 0 mps 716 mmHg 5%
    16:00 +35°C° 0 mm 0 mps 716 mmHg 6%
    17:00 +35°C° 0 mm 1 mps 716 mmHg 7%
    18:00 +32°C° 0 mm 1 mps 716 mmHg 8%
    19:00 +31°C° 0 mm 1 mps 716 mmHg 8%
    20:00 +30°C° 0 mm 1 mps 716 mmHg 8%
    21:00 +29°C° 0 mm 1 mps 717 mmHg 9%
    22:00 +28°C° 0 mm 1 mps 717 mmHg 9%
    23:00 +27°C° 0 mm 1 mps 717 mmHg 9%

    24 January, Thursday

    Time Temperature Precipitation Wind Pressure Humidity
    00:00 +27°C° 0 mm 1 mps 716 mmHg 9%
    01:00 +26°C° 0 mm 2 mps 716 mmHg 9%
    02:00 +25°C° 0 mm 2 mps 716 mmHg 9%
    03:00 +25°C° 0 mm 2 mps 715 mmHg 9%
    04:00 +24°C° 0 mm 2 mps 715 mmHg 10%
    05:00 +24°C° 0 mm 2 mps 716 mmHg 10%
    06:00 +23°C° 0 mm 2 mps 716 mmHg 10%
    07:00 +26°C° 0 mm 2 mps 717 mmHg 9%
    08:00 +28°C° 0 mm 2 mps 717 mmHg 9%
    09:00 +31°C° 0 mm 3 mps 718 mmHg 8%
    10:00 +34°C° 0 mm 2 mps 718 mmHg 7%
    11:00 +36°C° 0 mm 2 mps 717 mmHg 6%
    12:00 +39°C° 0 mm 2 mps 717 mmHg 5%
    13:00 +40°C° 0 mm 1 mps 716 mmHg 5%
    14:00 +40°C° 0 mm 1 mps 716 mmHg 5%
    15:00 +38°C° 0 mm 0 mps 715 mmHg 5%
    16:00 +35°C° 0 mm 0 mps 715 mmHg 6%
    17:00 +33°C° 0 mm 0 mps 715 mmHg 7%
    18:00 +30°C° 0 mm 0 mps 715 mmHg 7%
    19:00 +29°C° 0 mm 0 mps 715 mmHg 8%
    20:00 +28°C° 0 mm 0 mps 716 mmHg 8%
    21:00 +29°C° 0 mm 1 mps 716 mmHg 9%
    22:00 +29°C° 0 mm 1 mps 716 mmHg 9%
    23:00 +27°C° 0 mm 0 mps 716 mmHg 9%
    Show more